Time,TemperatureF,DewpointF,PressureIn,WindDirection,WindDirectionDegrees,WindSpeedMPH,WindSpeedGustMPH,Humidity,HourlyPrecipIn,Conditions,Clouds,dailyrainin,SolarRadiationWatts/m^2,SoftwareType,DateUTC
2013-02-11 00:01:00,39.0,36.3,30.27,WSW,254,0.0,0.0,90,0.00,,---,0.00,0.00,VWS V14.01,2013-02-11 08:01:00,
2013-02-11 00:06:00,39.1,36.4,30.27,WSW,254,0.0,1.0,90,0.00,,---,0.00,0.00,VWS V14.01,2013-02-11 08:06:00,
2013-02-11 00:11:00,39.1,36.4,30.28,WSW,254,0.0,1.0,90,0.00,,---,0.00,0.00,VWS V14.01,2013-02-11 08:11:00,
2013-02-11 00:16:00,39.1,36.4,30.28,WSW,254,0.0,0.0,90,0.00,,---,0.00,0.00,VWS V14.01,2013-02-11 08:16:00,
2013-02-11 00:21:00,39.2,36.5,30.28,WSW,256,0.0,1.0,90,0.00,,---,0.00,0.00,VWS V14.01,2013-02-11 08:21:00,
2013-02-11 00:26:00,39.2,36.8,30.28,WSW,256,0.0,1.0,91,0.00,,---,0.00,0.00,VWS V14.01,2013-02-11 08:26:00,
2013-02-11 00:31:00,39.2,36.8,30.28,WSW,257,0.0,2.0,91,0.00,,---,0.00,0.00,VWS V14.01,2013-02-11 08:31:00,
2013-02-11 00:36:00,39.2,36.8,30.28,WSW,257,0.0,2.0,91,0.00,,---,0.00,0.00,VWS V14.01,2013-02-11 08:36:00,
2013-02-11 00:41:00,39.3,36.9,30.28,WSW,257,0.0,0.0,91,0.00,,---,0.00,0.00,VWS V14.01,2013-02-11 08:41:00,
2013-02-11 00:46:00,39.3,36.9,30.28,WSW,257,0.0,0.0,91,0.00,,---,0.00,0.00,VWS V14.01,2013-02-11 08:46:00,
2013-02-11 00:51:00,39.3,36.9,30.28,WSW,257,0.0,0.0,91,0.00,,---,0.00,0.00,VWS V14.01,2013-02-11 08:51:00,
2013-02-11 00:56:00,39.3,36.9,30.28,WSW,257,0.0,1.0,91,0.00,,---,0.00,0.00,VWS V14.01,2013-02-11 08:56:00,
2013-02-11 01:01:00,39.3,36.9,30.28,WSW,257,0.0,1.0,91,0.00,,---,0.00,0.00,VWS V14.01,2013-02-11 09:01:00,
2013-02-11 01:06:00,39.3,36.9,30.28,WSW,257,0.0,0.0,91,0.00,,---,0.00,0.00,VWS V14.01,2013-02-11 09:06:00,
2013-02-11 01:11:00,39.3,36.9,30.28,WSW,257,0.0,0.0,91,0.00,,---,0.00,0.00,VWS V14.01,2013-02-11 09:11:00,
2013-02-11 01:16:00,39.3,36.9,30.28,WSW,257,0.0,0.0,91,0.00,,---,0.00,0.00,VWS V14.01,2013-02-11 09:16:00,
2013-02-11 01:21:00,39.2,36.8,30.28,WSW,257,0.0,0.0,91,0.00,,---,0.00,0.00,VWS V14.01,2013-02-11 09:21:00,
2013-02-11 01:26:00,39.1,37.0,30.28,WSW,257,0.0,0.0,92,0.00,,---,0.00,0.00,VWS V14.01,2013-02-11 09:26:00,
2013-02-11 01:31:00,39.1,37.0,30.28,WSW,257,0.0,0.0,92,0.00,,---,0.00,0.00,VWS V14.01,2013-02-11 09:31:00,
2013-02-11 01:36:00,39.0,36.9,30.28,WSW,257,0.0,0.0,92,0.00,,---,0.00,0.00,VWS V14.01,2013-02-11 09:36:00,
2013-02-11 01:41:00,38.9,36.8,30.28,WSW,257,0.0,0.0,92,0.00,,---,0.00,0.00,VWS V14.01,2013-02-11 09:41:00,
2013-02-11 01:46:00,38.8,36.7,30.28,WSW,257,0.0,0.0,92,0.00,,---,0.00,0.00,VWS V14.01,2013-02-11 09:46:00,
2013-02-11 01:51:00,38.7,36.6,30.28,WSW,257,0.0,0.0,92,0.00,,---,0.00,0.00,VWS V14.01,2013-02-11 09:51:00,
2013-02-11 01:56:00,38.7,36.6,30.28,WSW,257,0.0,0.0,92,0.00,,---,0.00,0.00,VWS V14.01,2013-02-11 09:56:00,
2013-02-11 02:01:00,38.6,36.5,30.28,WSW,257,0.0,0.0,92,0.00,,---,0.00,0.00,VWS V14.01,2013-02-11 10:01:00,
2013-02-11 02:06:00,38.6,36.5,30.28,WSW,257,0.0,0.0,92,0.00,,---,0.00,0.00,VWS V14.01,2013-02-11 10:06:00,
2013-02-11 02:11:00,38.5,36.4,30.28,WSW,257,0.0,0.0,92,0.00,,---,0.00,0.00,VWS V14.01,2013-02-11 10:11:00,
2013-02-11 02:16:00,38.4,36.3,30.27,WSW,257,0.0,0.0,92,0.00,,---,0.00,0.00,VWS V14.01,2013-02-11 10:16:00,
2013-02-11 02:21:00,38.3,36.2,30.27,WSW,257,0.0,0.0,92,0.00,,---,0.00,0.00,VWS V14.01,2013-02-11 10:21:00,
2013-02-11 02:26:00,38.2,36.1,30.28,WSW,257,0.0,0.0,92,0.00,,---,0.00,0.00,VWS V14.01,2013-02-11 10:26:00,
2013-02-11 02:32:00,38.1,36.3,30.27,WSW,257,0.0,0.0,93,0.00,,---,0.00,0.00,VWS V14.01,2013-02-11 10:32:00,
2013-02-11 02:37:00,38.0,36.2,30.27,WSW,257,0.0,0.0,93,0.00,,---,0.00,0.00,VWS V14.01,2013-02-11 10:37:00,
2013-02-11 02:42:00,37.9,36.1,30.27,WSW,257,0.0,0.0,93,0.00,,---,0.00,0.00,VWS V14.01,2013-02-11 10:42:00,
2013-02-11 02:47:00,37.9,36.1,30.27,WSW,257,0.0,0.0,93,0.00,,---,0.00,0.00,VWS V14.01,2013-02-11 10:47:00,
2013-02-11 02:52:00,37.8,36.0,30.27,WSW,257,0.0,0.0,93,0.00,,---,0.00,0.00,VWS V14.01,2013-02-11 10:52:00,
2013-02-11 02:57:00,37.8,36.0,30.27,WSW,257,0.0,0.0,93,0.00,,---,0.00,0.00,VWS V14.01,2013-02-11 10:57:00,
2013-02-11 03:02:00,37.8,36.2,30.26,WSW,257,0.0,0.0,94,0.00,,---,0.00,0.00,VWS V14.01,2013-02-11 11:02:00,
2013-02-11 03:07:00,37.8,36.2,30.26,WSW,257,0.0,0.0,94,0.00,,---,0.00,0.00,VWS V14.01,2013-02-11 11:07:00,
2013-02-11 03:12:00,37.8,36.2,30.26,WSW,257,0.0,0.0,94,0.00,,---,0.00,0.00,VWS V14.01,2013-02-11 11:12:00,
2013-02-11 03:17:00,37.8,36.2,30.26,WSW,257,0.0,0.0,94,0.00,,---,0.00,0.00,VWS V14.01,2013-02-11 11:17:00,
2013-02-11 03:22:00,37.8,36.2,30.26,WSW,257,0.0,0.0,94,0.00,,---,0.00,0.00,VWS V14.01,2013-02-11 11:22:00,
2013-02-11 03:27:00,37.7,36.1,30.26,WSW,257,0.0,0.0,94,0.00,,---,0.00,0.00,VWS V14.01,2013-02-11 11:27:00,
2013-02-11 03:32:00,37.7,36.1,30.26,WSW,257,0.0,0.0,94,0.00,,---,0.00,0.00,VWS V14.01,2013-02-11 11:32:00,
2013-02-11 03:37:00,37.6,36.0,30.26,WSW,257,0.0,0.0,94,0.00,,---,0.00,0.00,VWS V14.01,2013-02-11 11:37:00,
2013-02-11 03:42:00,37.5,35.9,30.26,WSW,257,0.0,0.0,94,0.00,,---,0.00,0.00,VWS V14.01,2013-02-11 11:42:00,
2013-02-11 03:47:00,37.4,35.8,30.26,WSW,257,0.0,0.0,94,0.00,,---,0.00,0.00,VWS V14.01,2013-02-11 11:47:00,
2013-02-11 03:52:00,37.3,35.7,30.26,WSW,257,0.0,0.0,94,0.00,,---,0.00,0.00,VWS V14.01,2013-02-11 11:52:00,
2013-02-11 03:57:00,37.3,35.7,30.26,WSW,257,0.0,1.0,94,0.00,,---,0.00,0.00,VWS V14.01,2013-02-11 11:57:00,
2013-02-11 04:02:00,37.3,35.7,30.26,WSW,257,0.0,0.0,94,0.00,,---,0.00,0.00,VWS V14.01,2013-02-11 12:02:00,
2013-02-11 04:07:00,37.3,35.7,30.26,WSW,257,0.0,0.0,94,0.00,,---,0.00,0.00,VWS V14.01,2013-02-11 12:07:00,
2013-02-11 04:12:00,37.2,35.6,30.26,WSW,257,0.0,0.0,94,0.00,,---,0.00,0.00,VWS V14.01,2013-02-11 12:12:00,
2013-02-11 04:17:00,37.1,35.5,30.26,WSW,257,0.0,1.0,94,0.00,,---,0.00,0.00,VWS V14.01,2013-02-11 12:17:00,
2013-02-11 04:22:00,37.0,35.4,30.26,WSW,257,0.0,1.0,94,0.00,,---,0.00,0.00,VWS V14.01,2013-02-11 12:22:00,
2013-02-11 04:27:00,36.9,35.3,30.26,WSW,257,0.0,0.0,94,0.00,,---,0.00,0.00,VWS V14.01,2013-02-11 12:27:00,
2013-02-11 04:32:00,36.7,35.1,30.27,WSW,257,0.0,0.0,94,0.00,,---,0.00,0.00,VWS V14.01,2013-02-11 12:32:00,
2013-02-11 04:37:00,36.6,35.0,30.27,WSW,257,0.0,0.0,94,0.00,,---,0.00,0.00,VWS V14.01,2013-02-11 12:37:00,
2013-02-11 04:42:00,36.4,34.8,30.27,WSW,257,0.0,0.0,94,0.00,,---,0.00,0.00,VWS V14.01,2013-02-11 12:42:00,
2013-02-11 04:47:00,36.3,34.7,30.27,WSW,257,0.0,0.0,94,0.00,,---,0.00,0.00,VWS V14.01,2013-02-11 12:47:00,
2013-02-11 04:52:00,36.3,34.7,30.27,WSW,257,0.0,0.0,94,0.00,,---,0.00,0.00,VWS V14.01,2013-02-11 12:52:00,
2013-02-11 04:57:00,36.4,35.1,30.27,WSW,257,0.0,0.0,95,0.00,,---,0.00,0.00,VWS V14.01,2013-02-11 12:57:00,
2013-02-11 05:02:00,36.5,35.2,30.27,WSW,257,0.0,0.0,95,0.00,,---,0.00,0.00,VWS V14.01,2013-02-11 13:02:00,
2013-02-11 05:07:00,36.5,35.2,30.27,WSW,257,0.0,0.0,95,0.00,,---,0.00,0.00,VWS V14.01,2013-02-11 13:07:00,
2013-02-11 05:12:00,36.6,35.3,30.27,WSW,257,0.0,0.0,95,0.00,,---,0.00,0.00,VWS V14.01,2013-02-11 13:12:00,
2013-02-11 05:17:00,36.6,35.3,30.27,WSW,257,0.0,0.0,95,0.00,,---,0.00,0.00,VWS V14.01,2013-02-11 13:17:00,
2013-02-11 05:22:00,36.7,35.4,30.27,WSW,257,0.0,0.0,95,0.00,,---,0.00,0.00,VWS V14.01,2013-02-11 13:22:00,
2013-02-11 05:27:00,36.6,35.3,30.27,WSW,257,0.0,0.0,95,0.00,,---,0.00,0.00,VWS V14.01,2013-02-11 13:27:00,
2013-02-11 05:32:00,36.6,35.3,30.27,WSW,257,0.0,0.0,95,0.00,,---,0.00,0.00,VWS V14.01,2013-02-11 13:32:00,
2013-02-11 05:37:00,36.7,35.7,30.27,WSW,257,0.0,0.0,96,0.00,,---,0.00,0.00,VWS V14.01,2013-02-11 13:37:00,
2013-02-11 05:42:00,36.8,35.8,30.27,WSW,257,0.0,0.0,96,0.00,,---,0.00,0.00,VWS V14.01,2013-02-11 13:42:00,
2013-02-11 05:47:00,36.8,35.8,30.27,WSW,257,0.0,0.0,96,0.00,,---,0.00,0.00,VWS V14.01,2013-02-11 13:47:00,
2013-02-11 05:52:00,36.9,35.9,30.27,WSW,257,0.0,0.0,96,0.00,,---,0.00,0.00,VWS V14.01,2013-02-11 13:52:00,
2013-02-11 05:57:00,36.9,35.9,30.27,WSW,257,0.0,0.0,96,0.00,,---,0.00,0.00,VWS V14.01,2013-02-11 13:57:00,
2013-02-11 06:02:00,37.0,36.0,30.27,WSW,257,0.0,0.0,96,0.00,,---,0.00,0.00,VWS V14.01,2013-02-11 14:02:00,
2013-02-11 06:07:00,37.1,36.1,30.27,WSW,257,0.0,0.0,96,0.00,,---,0.00,0.00,VWS V14.01,2013-02-11 14:07:00,
2013-02-11 06:12:00,37.1,36.1,30.27,WSW,257,0.0,0.0,96,0.00,,---,0.00,0.00,VWS V14.01,2013-02-11 14:12:00,
2013-02-11 06:17:00,37.1,36.1,30.27,WSW,257,0.0,0.0,96,0.00,,---,0.00,0.00,VWS V14.01,2013-02-11 14:17:00,
2013-02-11 06:22:00,37.1,36.1,30.27,WSW,257,0.0,0.0,96,0.00,,---,0.00,0.00,VWS V14.01,2013-02-11 14:22:00,
2013-02-11 06:27:00,37.1,36.1,30.27,WSW,257,0.0,0.0,96,0.00,,---,0.00,0.00,VWS V14.01,2013-02-11 14:27:00,
2013-02-11 06:32:00,37.1,36.1,30.27,WSW,257,0.0,0.0,96,0.00,,---,0.00,0.00,VWS V14.01,2013-02-11 14:32:00,
2013-02-11 06:37:00,37.1,36.1,30.27,WSW,257,0.0,0.0,96,0.00,,---,0.00,0.00,VWS V14.01,2013-02-11 14:37:00,
2013-02-11 06:42:00,37.1,36.1,30.27,WSW,257,0.0,0.0,96,0.00,,---,0.00,0.00,VWS V14.01,2013-02-11 14:42:00,
2013-02-11 06:47:00,37.1,36.1,30.27,WSW,257,0.0,0.0,96,0.00,,---,0.00,0.00,VWS V14.01,2013-02-11 14:47:00,
2013-02-11 06:52:00,37.1,36.1,30.27,WSW,257,0.0,0.0,96,0.00,,---,0.00,0.00,VWS V14.01,2013-02-11 14:52:00,
2013-02-11 06:57:00,37.1,36.1,30.27,WSW,257,0.0,0.0,96,0.00,,---,0.00,0.00,VWS V14.01,2013-02-11 14:57:00,
2013-02-11 07:02:00,37.1,36.1,30.27,WSW,257,0.0,0.0,96,0.00,,---,0.00,0.00,VWS V14.01,2013-02-11 15:02:00,
2013-02-11 07:07:00,37.1,36.1,30.27,WSW,257,0.0,0.0,96,0.00,,---,0.00,0.00,VWS V14.01,2013-02-11 15:07:00,
2013-02-11 07:12:00,37.1,36.1,30.27,WSW,257,0.0,0.0,96,0.00,,---,0.00,0.00,VWS V14.01,2013-02-11 15:12:00,
2013-02-11 07:17:00,37.1,36.1,30.27,WSW,257,0.0,0.0,96,0.00,,---,0.00,0.00,VWS V14.01,2013-02-11 15:17:00,
2013-02-11 07:22:00,37.2,36.2,30.27,WSW,257,0.0,0.0,96,0.00,,---,0.00,0.00,VWS V14.01,2013-02-11 15:22:00,
2013-02-11 07:27:00,37.2,36.2,30.27,WSW,257,0.0,0.0,96,0.00,,---,0.00,0.00,VWS V14.01,2013-02-11 15:27:00,
2013-02-11 07:32:00,37.3,36.3,30.27,WSW,257,0.0,0.0,96,0.00,,---,0.00,5.00,VWS V14.01,2013-02-11 15:32:00,
2013-02-11 07:37:00,37.3,36.3,30.27,WSW,257,0.0,0.0,96,0.00,,---,0.00,5.00,VWS V14.01,2013-02-11 15:37:00,
2013-02-11 07:42:00,37.4,36.4,30.27,WSW,257,0.0,0.0,96,0.00,,---,0.00,7.00,VWS V14.01,2013-02-11 15:42:00,
2013-02-11 07:47:00,37.5,36.5,30.27,WSW,257,0.0,0.0,96,0.00,,---,0.00,9.00,VWS V14.01,2013-02-11 15:47:00,
2013-02-11 07:52:00,37.5,36.5,30.27,WSW,257,0.0,0.0,96,0.00,,---,0.00,12.00,VWS V14.01,2013-02-11 15:52:00,
2013-02-11 07:57:00,37.5,36.5,30.27,WSW,257,0.0,0.0,96,0.00,,---,0.00,14.00,VWS V14.01,2013-02-11 15:57:00,
2013-02-11 08:02:00,37.5,36.5,30.26,WSW,257,0.0,0.0,96,0.00,,---,0.00,21.00,VWS V14.01,2013-02-11 16:02:00,
2013-02-11 08:07:00,37.5,36.5,30.27,WSW,257,0.0,0.0,96,0.00,,---,0.00,30.00,VWS V14.01,2013-02-11 16:07:00,
2013-02-11 08:12:00,37.7,36.7,30.27,WSW,257,0.0,0.0,96,0.00,,---,0.00,35.00,VWS V14.01,2013-02-11 16:12:00,
2013-02-11 08:17:00,37.7,36.7,30.27,WSW,257,0.0,0.0,96,0.00,,---,0.00,44.00,VWS V14.01,2013-02-11 16:17:00,
2013-02-11 08:22:00,37.8,36.8,30.27,WSW,257,0.0,0.0,96,0.00,,---,0.00,35.00,VWS V14.01,2013-02-11 16:22:00,
2013-02-11 08:27:00,37.9,36.9,30.27,WSW,257,0.0,0.0,96,0.00,,---,0.00,35.00,VWS V14.01,2013-02-11 16:27:00,
2013-02-11 08:32:00,38.0,37.0,30.27,WSW,257,0.0,0.0,96,0.00,,---,0.00,32.00,VWS V14.01,2013-02-11 16:32:00,
2013-02-11 08:37:00,38.1,37.1,30.27,WSW,257,0.0,0.0,96,0.00,,---,0.00,39.00,VWS V14.01,2013-02-11 16:37:00,
2013-02-11 08:42:00,38.2,37.2,30.27,WSW,257,0.0,0.0,96,0.00,,---,0.00,47.00,VWS V14.01,2013-02-11 16:42:00,
2013-02-11 08:47:00,38.2,37.2,30.28,WSW,257,0.0,0.0,96,0.00,,---,0.00,32.00,VWS V14.01,2013-02-11 16:47:00,
2013-02-11 08:52:00,38.3,37.3,30.28,WSW,257,0.0,0.0,96,0.00,,---,0.00,39.00,VWS V14.01,2013-02-11 16:52:00,
2013-02-11 08:58:00,38.4,37.4,30.28,WSW,257,0.0,0.0,96,0.00,,---,0.00,42.00,VWS V14.01,2013-02-11 16:58:00,
2013-02-11 09:03:00,38.5,37.5,30.28,WSW,257,0.0,0.0,96,0.00,,---,0.00,40.00,VWS V14.01,2013-02-11 17:03:00,
2013-02-11 09:08:00,38.5,37.5,30.28,WSW,257,0.0,0.0,96,0.00,,---,0.00,53.00,VWS V14.01,2013-02-11 17:08:00,
2013-02-11 09:13:00,38.6,37.6,30.28,WSW,257,0.0,0.0,96,0.00,,---,0.00,63.00,VWS V14.01,2013-02-11 17:13:00,
2013-02-11 09:18:00,38.9,37.9,30.28,WSW,257,0.0,0.0,96,0.00,,---,0.00,60.00,VWS V14.01,2013-02-11 17:18:00,
2013-02-11 09:23:00,39.1,38.1,30.28,WSW,257,0.0,0.0,96,0.00,,---,0.00,70.00,VWS V14.01,2013-02-11 17:23:00,
2013-02-11 09:28:00,39.3,38.3,30.29,WSW,257,0.0,0.0,96,0.00,,---,0.00,76.00,VWS V14.01,2013-02-11 17:28:00,
2013-02-11 09:33:00,39.4,38.4,30.29,WSW,257,0.0,0.0,96,0.00,,---,0.00,67.00,VWS V14.01,2013-02-11 17:33:00,
2013-02-11 09:38:00,39.6,38.6,30.29,WSW,257,0.0,0.0,96,0.00,,---,0.00,69.00,VWS V14.01,2013-02-11 17:38:00,
2013-02-11 09:43:00,39.7,38.4,30.29,WSW,257,0.0,0.0,95,0.00,,---,0.00,77.00,VWS V14.01,2013-02-11 17:43:00,
2013-02-11 09:48:00,39.8,38.5,30.29,WSW,257,0.0,0.0,95,0.00,,---,0.00,102.00,VWS V14.01,2013-02-11 17:48:00,
2013-02-11 09:53:00,40.1,39.0,30.29,WSW,257,0.0,0.0,96,0.00,,---,0.00,97.00,VWS V14.01,2013-02-11 17:53:00,
2013-02-11 09:58:00,40.3,39.0,30.29,WSW,257,0.0,0.0,95,0.00,,---,0.00,123.00,VWS V14.01,2013-02-11 17:58:00,
2013-02-11 10:03:00,40.4,39.1,30.29,WSW,257,0.0,0.0,95,0.00,,---,0.00,127.00,VWS V14.01,2013-02-11 18:03:00,
2013-02-11 10:08:00,40.5,38.9,30.29,WSW,249,0.0,1.0,94,0.00,,---,0.00,111.00,VWS V14.01,2013-02-11 18:08:00,
2013-02-11 10:13:00,40.6,39.0,30.29,WSW,249,0.0,1.0,94,0.00,,---,0.00,132.00,VWS V14.01,2013-02-11 18:13:00,
2013-02-11 10:18:00,40.7,39.1,30.29,WSW,249,0.0,1.0,94,0.00,,---,0.00,181.00,VWS V14.01,2013-02-11 18:18:00,
2013-02-11 10:23:00,41.0,39.4,30.29,WSW,249,0.0,2.0,94,0.00,,---,0.00,128.00,VWS V14.01,2013-02-11 18:23:00,
2013-02-11 10:28:00,41.4,39.8,30.29,WSW,249,0.0,2.0,94,0.00,,---,0.00,128.00,VWS V14.01,2013-02-11 18:28:00,
2013-02-11 10:33:00,41.6,39.7,30.29,WSW,249,0.0,1.0,93,0.00,,---,0.00,127.00,VWS V14.01,2013-02-11 18:33:00,
2013-02-11 10:38:00,41.6,39.2,30.29,WSW,249,0.0,1.0,91,0.00,,---,0.00,104.00,VWS V14.01,2013-02-11 18:38:00,
2013-02-11 10:43:00,41.6,39.2,30.29,WSW,249,0.0,1.0,91,0.00,,---,0.00,130.00,VWS V14.01,2013-02-11 18:43:00,
2013-02-11 10:48:00,41.7,39.3,30.29,WSW,249,0.0,0.0,91,0.00,,---,0.00,127.00,VWS V14.01,2013-02-11 18:48:00,
2013-02-11 10:53:00,41.8,39.4,30.29,WSW,249,0.0,0.0,91,0.00,,---,0.00,76.00,VWS V14.01,2013-02-11 18:53:00,
2013-02-11 10:58:00,42.0,39.3,30.29,WSW,249,0.0,0.0,90,0.00,,---,0.00,95.00,VWS V14.01,2013-02-11 18:58:00,
2013-02-11 11:03:00,42.1,39.7,30.29,SW,216,2.0,2.0,91,0.00,,---,0.00,160.00,VWS V14.01,2013-02-11 19:03:00,
2013-02-11 11:08:00,42.5,40.3,30.29,SW,216,0.0,2.0,92,0.00,,---,0.00,183.00,VWS V14.01,2013-02-11 19:08:00,
2013-02-11 11:13:00,42.8,40.6,30.29,WNW,289,0.0,2.0,92,0.00,,---,0.00,195.00,VWS V14.01,2013-02-11 19:13:00,
2013-02-11 11:18:00,43.2,40.8,30.29,WNW,289,0.0,2.0,91,0.00,,---,0.00,214.00,VWS V14.01,2013-02-11 19:18:00,
2013-02-11 11:23:00,43.4,41.0,30.29,WNW,289,0.0,0.0,91,0.00,,---,0.00,227.00,VWS V14.01,2013-02-11 19:23:00,
2013-02-11 11:28:00,43.7,41.0,30.28,WNW,289,0.0,1.0,90,0.00,,---,0.00,137.00,VWS V14.01,2013-02-11 19:28:00,
2013-02-11 11:33:00,44.0,40.7,30.28,WNW,289,0.0,1.0,88,0.00,,---,0.00,185.00,VWS V14.01,2013-02-11 19:33:00,
2013-02-11 11:38:00,43.9,39.7,30.28,ENE,63,0.0,2.0,85,0.00,,---,0.00,141.00,VWS V14.01,2013-02-11 19:38:00,
2013-02-11 11:43:00,43.9,39.7,30.28,ENE,63,0.0,2.0,85,0.00,,---,0.00,114.00,VWS V14.01,2013-02-11 19:43:00,
2013-02-11 11:48:00,43.9,40.3,30.28,WNW,301,1.0,1.0,87,0.00,,---,0.00,91.00,VWS V14.01,2013-02-11 19:48:00,
2013-02-11 11:53:00,44.1,40.5,30.28,WNW,301,0.0,2.0,87,0.00,,---,0.00,90.00,VWS V14.01,2013-02-11 19:53:00,
2013-02-11 11:58:00,44.1,39.9,30.28,West,267,0.0,2.0,85,0.00,,---,0.00,98.00,VWS V14.01,2013-02-11 19:58:00,
2013-02-11 12:03:00,43.9,39.1,30.28,West,267,0.0,2.0,83,0.00,,---,0.00,123.00,VWS V14.01,2013-02-11 20:03:00,
2013-02-11 12:08:00,43.7,39.8,30.28,West,267,0.0,2.0,86,0.00,,---,0.00,104.00,VWS V14.01,2013-02-11 20:08:00,
2013-02-11 12:13:00,43.6,39.4,30.28,West,267,0.0,1.0,85,0.00,,---,0.00,141.00,VWS V14.01,2013-02-11 20:13:00,
2013-02-11 12:18:00,43.7,39.2,30.27,East,96,1.0,1.0,84,0.00,,---,0.00,202.00,VWS V14.01,2013-02-11 20:18:00,
2013-02-11 12:23:00,43.9,39.4,30.27,ESE,116,4.0,4.0,84,0.00,,---,0.00,237.00,VWS V14.01,2013-02-11 20:23:00,
2013-02-11 12:28:00,44.2,39.4,30.27,West,269,2.0,4.0,83,0.00,,---,0.00,171.00,VWS V14.01,2013-02-11 20:28:00,
2013-02-11 12:33:00,44.5,39.7,30.27,WSW,248,0.0,4.0,83,0.00,,---,0.00,105.00,VWS V14.01,2013-02-11 20:33:00,
2013-02-11 12:38:00,44.4,38.6,30.27,East,96,0.0,3.0,80,0.00,,---,0.00,77.00,VWS V14.01,2013-02-11 20:38:00,
2013-02-11 12:43:00,44.2,38.4,30.27,WNW,283,2.0,4.0,80,0.00,,---,0.00,111.00,VWS V14.01,2013-02-11 20:43:00,
2013-02-11 12:48:00,44.2,38.8,30.27,West,263,0.0,3.0,81,0.00,,---,0.00,141.00,VWS V14.01,2013-02-11 20:48:00,
2013-02-11 12:53:00,44.3,38.8,30.27,West,263,0.0,2.0,81,0.00,,---,0.00,151.00,VWS V14.01,2013-02-11 20:53:00,
2013-02-11 12:59:00,44.6,39.8,30.27,West,263,0.0,1.0,83,0.00,,---,0.00,153.00,VWS V14.01,2013-02-11 20:59:00,
2013-02-11 13:04:00,45.0,39.8,30.27,West,263,0.0,1.0,82,0.00,,---,0.00,158.00,VWS V14.01,2013-02-11 21:04:00,
2013-02-11 13:09:00,45.2,38.4,30.27,WSW,243,0.0,4.0,77,0.00,,---,0.00,169.00,VWS V14.01,2013-02-11 21:09:00,
2013-02-11 13:14:00,45.1,38.3,30.27,SE,141,0.0,4.0,77,0.00,,---,0.00,155.00,VWS V14.01,2013-02-11 21:14:00,
2013-02-11 13:19:00,45.0,39.2,30.27,South,181,0.0,4.0,80,0.00,,---,0.00,149.00,VWS V14.01,2013-02-11 21:19:00,
2013-02-11 13:24:00,45.0,37.6,30.27,SW,227,0.0,5.0,75,0.00,,---,0.00,132.00,VWS V14.01,2013-02-11 21:24:00,
2013-02-11 13:29:00,45.0,38.6,30.27,SSE,148,0.0,5.0,78,0.00,,---,0.00,105.00,VWS V14.01,2013-02-11 21:29:00,
2013-02-11 13:34:00,45.0,37.9,30.26,WSW,238,1.0,4.0,76,0.00,,---,0.00,128.00,VWS V14.01,2013-02-11 21:34:00,
2013-02-11 13:39:00,45.0,37.9,30.26,SSE,167,0.0,5.0,76,0.00,,---,0.00,141.00,VWS V14.01,2013-02-11 21:39:00,
2013-02-11 13:44:00,45.0,38.6,30.26,South,185,0.0,5.0,78,0.00,,---,0.00,116.00,VWS V14.01,2013-02-11 21:44:00,
2013-02-11 13:49:00,45.0,38.2,30.26,South,185,0.0,4.0,77,0.00,,---,0.00,118.00,VWS V14.01,2013-02-11 21:49:00,
2013-02-11 13:54:00,45.1,39.0,30.26,SW,232,0.0,2.0,79,0.00,,---,0.00,95.00,VWS V14.01,2013-02-11 21:54:00,
2013-02-11 13:59:00,45.3,38.5,30.26,SW,232,0.0,2.0,77,0.00,,---,0.00,121.00,VWS V14.01,2013-02-11 21:59:00,
2013-02-11 14:04:00,45.4,38.3,30.26,South,190,0.0,2.0,76,0.00,,---,0.00,128.00,VWS V14.01,2013-02-11 22:04:00,
2013-02-11 14:09:00,45.6,38.5,30.26,SW,232,0.0,3.0,76,0.00,,---,0.00,134.00,VWS V14.01,2013-02-11 22:09:00,
2013-02-11 14:14:00,45.7,39.2,30.26,SW,231,0.0,3.0,78,0.00,,---,0.00,130.00,VWS V14.01,2013-02-11 22:14:00,
2013-02-11 14:19:00,45.6,38.8,30.26,WSW,254,1.0,2.0,77,0.00,,---,0.00,97.00,VWS V14.01,2013-02-11 22:19:00,
2013-02-11 14:24:00,45.7,38.9,30.26,WSW,254,0.0,2.0,77,0.00,,---,0.00,109.00,VWS V14.01,2013-02-11 22:24:00,
2013-02-11 14:29:00,45.8,38.7,30.26,WSW,245,3.0,3.0,76,0.00,,---,0.00,95.00,VWS V14.01,2013-02-11 22:29:00,
2013-02-11 14:34:00,46.0,39.2,30.26,WSW,245,0.0,3.0,77,0.00,,---,0.00,120.00,VWS V14.01,2013-02-11 22:34:00,
2013-02-11 14:39:00,46.0,39.2,30.26,WSW,245,0.0,1.0,77,0.00,,---,0.00,98.00,VWS V14.01,2013-02-11 22:39:00,
2013-02-11 14:44:00,46.0,39.2,30.26,SW,222,2.0,2.0,77,0.00,,---,0.00,70.00,VWS V14.01,2013-02-11 22:44:00,
2013-02-11 14:49:00,45.8,38.3,30.26,SSW,194,0.0,2.0,75,0.00,,---,0.00,81.00,VWS V14.01,2013-02-11 22:49:00,
2013-02-11 14:54:00,45.4,38.6,30.26,SSW,199,0.0,2.0,77,0.00,,---,0.00,95.00,VWS V14.01,2013-02-11 22:54:00,
2013-02-11 14:59:00,45.4,38.0,30.26,WSW,246,0.0,2.0,75,0.00,,---,0.00,69.00,VWS V14.01,2013-02-11 22:59:00,
2013-02-11 15:04:00,45.4,38.3,30.26,West,277,0.0,3.0,76,0.00,,---,0.00,60.00,VWS V14.01,2013-02-11 23:04:00,
2013-02-11 15:09:00,45.3,38.2,30.26,WSW,242,1.0,3.0,76,0.00,,---,0.00,53.00,VWS V14.01,2013-02-11 23:09:00,
2013-02-11 15:14:00,45.2,38.1,30.26,SSW,200,1.0,3.0,76,0.00,,---,0.00,54.00,VWS V14.01,2013-02-11 23:14:00,
2013-02-11 15:19:00,45.2,38.1,30.26,SSW,200,0.0,2.0,76,0.00,,---,0.00,69.00,VWS V14.01,2013-02-11 23:19:00,
2013-02-11 15:24:00,45.1,37.7,30.26,SSW,200,0.0,1.0,75,0.00,,---,0.00,79.00,VWS V14.01,2013-02-11 23:24:00,
2013-02-11 15:29:00,45.0,37.9,30.26,SSW,200,0.0,1.0,76,0.00,,---,0.00,60.00,VWS V14.01,2013-02-11 23:29:00,
2013-02-11 15:34:00,45.1,38.7,30.26,SSW,200,0.0,0.0,78,0.00,,---,0.00,54.00,VWS V14.01,2013-02-11 23:34:00,
2013-02-11 15:39:00,45.3,38.5,30.25,SSW,200,0.0,0.0,77,0.00,,---,0.00,74.00,VWS V14.01,2013-02-11 23:39:00,
2013-02-11 15:44:00,45.3,38.9,30.26,SSW,200,0.0,1.0,78,0.00,,---,0.00,42.00,VWS V14.01,2013-02-11 23:44:00,
2013-02-11 15:49:00,45.4,38.6,30.26,SSW,200,0.0,1.0,77,0.00,,---,0.00,37.00,VWS V14.01,2013-02-11 23:49:00,
2013-02-11 15:54:00,45.4,39.0,30.26,SSW,200,0.0,2.0,78,0.00,,---,0.00,40.00,VWS V14.01,2013-02-11 23:54:00,
2013-02-11 15:59:00,45.4,38.6,30.26,SSW,200,0.0,2.0,77,0.00,,---,0.00,28.00,VWS V14.01,2013-02-11 23:59:00,
2013-02-11 16:04:00,45.4,39.0,30.26,SSW,200,0.0,1.0,78,0.00,,---,0.00,18.00,VWS V14.01,2013-02-12 00:04:00,
2013-02-11 16:09:00,45.4,39.0,30.26,SSW,203,0.0,2.0,78,0.00,,---,0.00,19.00,VWS V14.01,2013-02-12 00:09:00,
2013-02-11 16:14:00,45.3,38.5,30.26,SSW,203,0.0,2.0,77,0.00,,---,0.00,23.00,VWS V14.01,2013-02-12 00:14:00,
2013-02-11 16:19:00,45.2,38.4,30.26,SSW,205,0.0,2.0,77,0.00,,---,0.00,23.00,VWS V14.01,2013-02-12 00:19:00,
2013-02-11 16:24:00,45.0,38.2,30.26,ESE,123,0.0,2.0,77,0.00,,---,0.00,18.00,VWS V14.01,2013-02-12 00:24:00,
2013-02-11 16:29:00,45.0,38.6,30.26,ESE,123,0.0,1.0,78,0.00,,---,0.00,16.00,VWS V14.01,2013-02-12 00:29:00,
2013-02-11 16:34:00,44.8,38.4,30.26,ESE,123,0.0,0.0,78,0.00,,---,0.00,9.00,VWS V14.01,2013-02-12 00:34:00,
2013-02-11 16:39:00,44.7,38.6,30.26,ESE,123,0.0,0.0,79,0.00,,---,0.00,9.00,VWS V14.01,2013-02-12 00:39:00,
2013-02-11 16:44:00,44.6,38.5,30.26,ESE,123,0.0,0.0,79,0.00,,---,0.00,11.00,VWS V14.01,2013-02-12 00:44:00,
2013-02-11 16:49:00,44.5,38.4,30.26,SE,146,0.0,1.0,79,0.00,,---,0.00,12.00,VWS V14.01,2013-02-12 00:49:00,
2013-02-11 16:54:00,44.5,38.7,30.26,SE,146,0.0,0.0,80,0.00,,---,0.00,12.00,VWS V14.01,2013-02-12 00:54:00,
2013-02-11 16:59:00,44.4,38.6,30.26,SE,146,0.0,1.0,80,0.00,,---,0.00,7.00,VWS V14.01,2013-02-12 00:59:00,
2013-02-11 17:04:00,44.3,38.2,30.26,SE,138,0.0,2.0,79,0.00,,---,0.00,0.00,VWS V14.01,2013-02-12 01:04:00,
2013-02-11 17:09:00,44.2,38.4,30.26,SE,138,0.0,1.0,80,0.00,,---,0.00,0.00,VWS V14.01,2013-02-12 01:09:00,
2013-02-11 17:14:00,44.2,38.4,30.26,SE,138,0.0,0.0,80,0.00,,---,0.00,0.00,VWS V14.01,2013-02-12 01:14:00,
2013-02-11 17:19:00,44.1,38.3,30.26,SE,138,0.0,0.0,80,0.00,,---,0.00,0.00,VWS V14.01,2013-02-12 01:19:00,
2013-02-11 17:24:00,44.0,38.5,30.27,SE,138,0.0,0.0,81,0.00,,---,0.00,0.00,VWS V14.01,2013-02-12 01:24:00,
2013-02-11 17:29:00,44.0,38.5,30.27,SSW,192,0.0,2.0,81,0.00,,---,0.00,0.00,VWS V14.01,2013-02-12 01:29:00,
2013-02-11 17:34:00,43.9,38.5,30.27,SSW,200,0.0,2.0,81,0.00,,---,0.00,0.00,VWS V14.01,2013-02-12 01:34:00,
2013-02-11 17:39:00,43.9,38.8,30.27,SSW,200,0.0,2.0,82,0.00,,---,0.00,0.00,VWS V14.01,2013-02-12 01:39:00,
2013-02-11 17:44:00,43.8,39.0,30.27,SSW,200,0.0,0.0,83,0.00,,---,0.00,0.00,VWS V14.01,2013-02-12 01:44:00,
2013-02-11 17:50:00,43.8,39.0,30.27,SSW,200,0.0,0.0,83,0.00,,---,0.00,0.00,VWS V14.01,2013-02-12 01:50:00,
2013-02-11 17:55:00,43.7,38.9,30.27,SSW,200,0.0,0.0,83,0.00,,---,0.00,0.00,VWS V14.01,2013-02-12 01:55:00,
2013-02-11 18:00:00,43.6,38.8,30.27,ESE,115,0.0,2.0,83,0.00,,---,0.00,0.00,VWS V14.01,2013-02-12 02:00:00,
2013-02-11 18:05:00,43.5,38.7,30.27,ESE,115,0.0,2.0,83,0.00,,---,0.00,0.00,VWS V14.01,2013-02-12 02:05:00,
2013-02-11 18:10:00,43.4,38.6,30.27,SSW,196,0.0,2.0,83,0.00,,---,0.00,0.00,VWS V14.01,2013-02-12 02:10:00,
2013-02-11 18:15:00,43.4,38.9,30.27,SSW,196,0.0,2.0,84,0.00,,---,0.00,0.00,VWS V14.01,2013-02-12 02:15:00,
2013-02-11 18:20:00,43.3,38.8,30.27,SSW,196,0.0,0.0,84,0.00,,---,0.00,0.00,VWS V14.01,2013-02-12 02:20:00,
2013-02-11 18:25:00,43.2,39.0,30.28,SSW,196,0.0,0.0,85,0.00,,---,0.00,0.00,VWS V14.01,2013-02-12 02:25:00,
2013-02-11 18:30:00,43.1,38.6,30.28,SSW,196,0.0,0.0,84,0.00,,---,0.00,0.00,VWS V14.01,2013-02-12 02:30:00,
2013-02-11 18:35:00,43.1,38.6,30.27,SSW,196,0.0,0.0,84,0.00,,---,0.00,0.00,VWS V14.01,2013-02-12 02:35:00,
2013-02-11 18:40:00,43.1,38.9,30.28,SSW,196,0.0,0.0,85,0.00,,---,0.00,0.00,VWS V14.01,2013-02-12 02:40:00,
2013-02-11 18:45:00,43.0,38.8,30.28,SSW,196,0.0,0.0,85,0.00,,---,0.00,0.00,VWS V14.01,2013-02-12 02:45:00,
2013-02-11 18:50:00,42.9,39.0,30.28,SSW,196,0.0,0.0,86,0.00,,---,0.00,0.00,VWS V14.01,2013-02-12 02:50:00,
2013-02-11 18:55:00,42.9,39.0,30.27,SSW,196,0.0,0.0,86,0.00,,---,0.00,0.00,VWS V14.01,2013-02-12 02:55:00,
2013-02-11 19:00:00,42.8,38.6,30.27,SSW,196,0.0,0.0,85,0.00,,---,0.00,0.00,VWS V14.01,2013-02-12 03:00:00,
2013-02-11 19:05:00,42.8,38.9,30.27,SSW,196,0.0,0.0,86,0.00,,---,0.00,0.00,VWS V14.01,2013-02-12 03:05:00,
2013-02-11 19:10:00,42.7,38.8,30.27,SSW,196,0.0,0.0,86,0.00,,---,0.00,0.00,VWS V14.01,2013-02-12 03:10:00,
2013-02-11 19:15:00,42.7,39.1,30.27,SSW,196,0.0,0.0,87,0.00,,---,0.00,0.00,VWS V14.01,2013-02-12 03:15:00,
2013-02-11 19:20:00,42.6,39.0,30.27,SSW,196,0.0,0.0,87,0.00,,---,0.00,0.00,VWS V14.01,2013-02-12 03:20:00,
2013-02-11 19:25:00,42.6,39.0,30.27,SSW,196,0.0,0.0,87,0.00,,---,0.00,0.00,VWS V14.01,2013-02-12 03:25:00,
2013-02-11 19:30:00,42.6,38.7,30.27,SSW,196,0.0,0.0,86,0.00,,---,0.00,0.00,VWS V14.01,2013-02-12 03:30:00,
2013-02-11 19:35:00,42.6,39.0,30.27,SSW,196,0.0,0.0,87,0.00,,---,0.00,0.00,VWS V14.01,2013-02-12 03:35:00,
2013-02-11 19:40:00,42.5,38.9,30.27,SSW,196,0.0,0.0,87,0.00,,---,0.00,0.00,VWS V14.01,2013-02-12 03:40:00,
2013-02-11 19:45:00,42.4,38.8,30.27,SSW,196,0.0,0.0,87,0.00,,---,0.00,0.00,VWS V14.01,2013-02-12 03:45:00,
2013-02-11 19:50:00,42.4,38.8,30.27,SSW,196,0.0,0.0,87,0.00,,---,0.00,0.00,VWS V14.01,2013-02-12 03:50:00,
2013-02-11 19:55:00,42.3,39.0,30.27,SSW,196,0.0,0.0,88,0.00,,---,0.00,0.00,VWS V14.01,2013-02-12 03:55:00,
2013-02-11 20:00:00,42.3,39.0,30.27,SSW,196,0.0,0.0,88,0.00,,---,0.00,0.00,VWS V14.01,2013-02-12 04:00:00,
2013-02-11 20:05:00,42.2,38.9,30.26,SSW,196,0.0,0.0,88,0.00,,---,0.00,0.00,VWS V14.01,2013-02-12 04:05:00,
2013-02-11 20:10:00,42.2,38.9,30.27,SSW,196,0.0,0.0,88,0.00,,---,0.00,0.00,VWS V14.01,2013-02-12 04:10:00,
2013-02-11 20:15:00,42.1,38.8,30.27,SSW,196,0.0,0.0,88,0.00,,---,0.00,0.00,VWS V14.01,2013-02-12 04:15:00,
2013-02-11 20:20:00,42.1,38.8,30.27,SSW,196,0.0,0.0,88,0.00,,---,0.00,0.00,VWS V14.01,2013-02-12 04:20:00,
2013-02-11 20:25:00,42.1,39.1,30.27,SSW,196,0.0,0.0,89,0.00,,---,0.00,0.00,VWS V14.01,2013-02-12 04:25:00,
2013-02-11 20:30:00,42.1,39.1,30.27,SSW,196,0.0,0.0,89,0.00,,---,0.00,0.00,VWS V14.01,2013-02-12 04:30:00,
2013-02-11 20:35:00,42.0,39.0,30.27,SSW,196,0.0,0.0,89,0.00,,---,0.00,0.00,VWS V14.01,2013-02-12 04:35:00,
2013-02-11 20:40:00,42.0,39.0,30.27,SSW,196,0.0,0.0,89,0.00,,---,0.00,0.00,VWS V14.01,2013-02-12 04:40:00,
2013-02-11 20:45:00,42.0,39.0,30.27,SSW,196,0.0,0.0,89,0.00,,---,0.00,0.00,VWS V14.01,2013-02-12 04:45:00,
2013-02-11 20:50:00,41.9,38.9,30.27,SSW,196,0.0,0.0,89,0.00,,---,0.00,0.00,VWS V14.01,2013-02-12 04:50:00,
2013-02-11 20:55:00,41.9,38.9,30.26,SSW,196,0.0,0.0,89,0.00,,---,0.00,0.00,VWS V14.01,2013-02-12 04:55:00,
2013-02-11 21:00:00,41.8,39.1,30.26,SSW,196,0.0,0.0,90,0.00,,---,0.00,0.00,VWS V14.01,2013-02-12 05:00:00,
2013-02-11 21:01:00,41.8,39.1,30.26,SSW,196,0.0,0.0,90,0.00,,---,0.00,0.00,VWS V14.01,2013-02-12 05:01:00,
2013-02-11 21:06:00,41.8,39.1,30.26,SSW,196,0.0,0.0,90,0.00,,---,0.00,0.00,VWS V14.01,2013-02-12 05:06:00,
2013-02-11 21:11:00,41.7,39.0,30.26,SSW,196,0.0,0.0,90,0.00,,---,0.00,0.00,VWS V14.01,2013-02-12 05:11:00,
2013-02-11 21:16:00,41.6,38.9,30.26,SSW,196,0.0,0.0,90,0.00,,---,0.00,0.00,VWS V14.01,2013-02-12 05:16:00,
2013-02-11 21:21:00,41.6,38.9,30.26,ESE,109,0.0,4.0,90,0.00,,---,0.00,0.00,VWS V14.01,2013-02-12 05:21:00,
2013-02-11 21:26:00,41.5,38.8,30.27,ESE,109,0.0,0.0,90,0.00,,---,0.00,0.00,VWS V14.01,2013-02-12 05:26:00,
2013-02-11 21:31:00,41.4,38.7,30.27,ESE,109,0.0,0.0,90,0.00,,---,0.00,0.00,VWS V14.01,2013-02-12 05:31:00,
2013-02-11 21:36:00,41.4,39.0,30.27,ESE,109,0.0,1.0,91,0.00,,---,0.00,0.00,VWS V14.01,2013-02-12 05:36:00,
2013-02-11 21:41:00,41.3,38.6,30.26,ESE,109,0.0,1.0,90,0.00,,---,0.00,0.00,VWS V14.01,2013-02-12 05:41:00,
2013-02-11 21:46:00,41.3,38.9,30.26,ESE,109,0.0,1.0,91,0.00,,---,0.00,0.00,VWS V14.01,2013-02-12 05:46:00,
2013-02-11 21:51:00,41.2,38.5,30.27,ESE,109,0.0,0.0,90,0.00,,---,0.00,0.00,VWS V14.01,2013-02-12 05:51:00,
2013-02-11 21:56:00,41.1,38.4,30.27,ESE,109,0.0,0.0,90,0.00,,---,0.00,0.00,VWS V14.01,2013-02-12 05:56:00,
2013-02-11 22:01:00,40.9,38.5,30.27,ESE,109,0.0,0.0,91,0.00,,---,0.00,0.00,VWS V14.01,2013-02-12 06:01:00,
2013-02-11 22:06:00,40.9,38.5,30.27,ESE,109,0.0,0.0,91,0.00,,---,0.00,0.00,VWS V14.01,2013-02-12 06:06:00,
2013-02-11 22:11:00,40.8,38.4,30.27,ESE,109,0.0,0.0,91,0.00,,---,0.00,0.00,VWS V14.01,2013-02-12 06:11:00,
2013-02-11 22:16:00,40.8,38.4,30.27,ESE,109,0.0,0.0,91,0.00,,---,0.00,0.00,VWS V14.01,2013-02-12 06:16:00,
2013-02-11 22:21:00,40.8,38.7,30.27,ESE,109,0.0,0.0,92,0.00,,---,0.00,0.00,VWS V14.01,2013-02-12 06:21:00,
2013-02-11 22:26:00,40.7,38.6,30.27,ESE,109,0.0,0.0,92,0.00,,---,0.00,0.00,VWS V14.01,2013-02-12 06:26:00,
2013-02-11 22:31:00,40.7,38.6,30.27,ESE,109,0.0,0.0,92,0.00,,---,0.00,0.00,VWS V14.01,2013-02-12 06:31:00,
2013-02-11 22:36:00,40.7,38.6,30.27,ESE,109,0.0,0.0,92,0.00,,---,0.00,0.00,VWS V14.01,2013-02-12 06:36:00,
2013-02-11 22:41:00,40.7,38.6,30.27,ESE,109,0.0,0.0,92,0.00,,---,0.00,0.00,VWS V14.01,2013-02-12 06:41:00,
2013-02-11 22:46:00,40.6,38.5,30.27,ESE,109,0.0,0.0,92,0.00,,---,0.00,0.00,VWS V14.01,2013-02-12 06:46:00,
2013-02-11 22:51:00,40.5,38.4,30.27,ESE,109,0.0,0.0,92,0.00,,---,0.00,0.00,VWS V14.01,2013-02-12 06:51:00,
2013-02-11 22:56:00,40.4,38.3,30.28,ESE,109,0.0,0.0,92,0.00,,---,0.00,0.00,VWS V14.01,2013-02-12 06:56:00,
2013-02-11 23:01:00,40.4,38.3,30.28,ESE,109,0.0,0.0,92,0.00,,---,0.00,0.00,VWS V14.01,2013-02-12 07:01:00,
2013-02-11 23:06:00,40.3,38.2,30.28,ESE,109,0.0,0.0,92,0.00,,---,0.00,0.00,VWS V14.01,2013-02-12 07:06:00,
2013-02-11 23:11:00,40.3,38.2,30.28,ESE,109,0.0,0.0,92,0.00,,---,0.00,0.00,VWS V14.01,2013-02-12 07:11:00,
2013-02-11 23:16:00,40.3,38.2,30.28,ESE,109,0.0,0.0,92,0.00,,---,0.00,0.00,VWS V14.01,2013-02-12 07:16:00,
2013-02-11 23:21:00,40.2,38.1,30.28,ESE,109,0.0,0.0,92,0.00,,---,0.00,0.00,VWS V14.01,2013-02-12 07:21:00,
2013-02-11 23:26:00,40.2,38.1,30.28,ESE,109,0.0,0.0,92,0.00,,---,0.00,0.00,VWS V14.01,2013-02-12 07:26:00,
2013-02-11 23:31:00,40.3,38.4,30.28,ESE,109,0.0,0.0,93,0.00,,---,0.00,0.00,VWS V14.01,2013-02-12 07:31:00,
2013-02-11 23:36:00,40.3,38.4,30.28,ESE,109,0.0,0.0,93,0.00,,---,0.00,0.00,VWS V14.01,2013-02-12 07:36:00,
2013-02-11 23:41:00,40.4,38.5,30.28,ESE,109,0.0,0.0,93,0.00,,---,0.00,0.00,VWS V14.01,2013-02-12 07:41:00,
2013-02-11 23:46:00,40.4,38.5,30.28,ESE,109,0.0,0.0,93,0.00,,---,0.00,0.00,VWS V14.01,2013-02-12 07:46:00,
2013-02-11 23:51:00,40.4,38.5,30.28,ESE,109,0.0,0.0,93,0.00,,---,0.00,0.00,VWS V14.01,2013-02-12 07:51:00,
2013-02-11 23:56:00,40.5,38.6,30.28,ESE,109,0.0,0.0,93,0.00,,---,0.00,0.00,VWS V14.01,2013-02-12 07:56:00,